Theta_e
356 358 357 357 358 358 357 360 359 360 359 359 359 359 360 361 359 359 362 361 362 361 362 362 363 362 360 362 360 362 365 364 364 366 367 367 366 366 366 366 364 363 364 363 364 364 365 365 364 364 366 364 364 362 360 361 362 360 361 360 356 360 359 357 352 353 359 360 358 357 359 363 360 366 360 359 361 364 362 368 369 364 364 366 366
356 357 358 358 357 356 356 358 359 360 359 359 359 359 359 360 362 362 360 362 363 361 362 361 362 362 361 361 363 361 364 367 363 363 365 365 365 361 362 365 365 364 364 364 363 362 364 365 364 362 365 363 363 362 362 359 358 356 358 357 357 360 362 358 355 354 355 358 357 361 359 362 357 364 362 358 359 363 360 363 362 364 365 366 367
356 359 358 358 358 357 357 358 359 359 358 358 357 357 359 360 362 361 359 359 363 362 361 361 363 365 362 362 364 363 365 364 364 364 365 365 364 360 360 362 364 363 362 363 362 362 362 363 361 361 359 359 361 360 362 360 360 359 357 359 358 358 362 363 360 355 355 356 359 357 359 360 359 361 363 361 364 364 363 360 358 358 362 364 363
358 359 360 358 357 357 358 358 357 357 357 357 357 358 358 359 362 360 359 359 359 363 363 362 363 366 363 363 364 365 364 363 363 364 365 365 364 363 363 363 363 363 362 363 362 362 360 360 360 360 361 362 361 359 361 362 361 362 360 362 363 360 364 365 364 361 359 356 359 358 358 358 358 362 362 363 360 362 361 364 362 361 361 360 363
359 359 359 359 358 357 357 358 357 357 357 357 358 358 358 359 360 360 359 358 359 360 363 364 364 365 360 361 363 364 363 364 364 362 363 363 364 361 362 364 364 364 363 364 364 365 363 361 361 362 363 361 360 358 357 360 361 361 360 362 362 363 363 364 365 364 362 358 359 363 363 361 361 362 362 358 358 362 365 364 361 363 364 360 358
360 359 359 357 359 359 358 358 357 358 358 358 358 358 358 358 359 360 359 358 360 359 359 361 361 363 363 363 363 364 365 365 365 364 362 362 362 362 362 364 362 363 364 363 364 365 363 364 363 364 363 362 360 360 363 362 362 360 360 360 361 363 364 365 366 366 363 361 361 360 362 357 359 360 363 362 355 355 359 362 363 365 365 360 358
360 360 358 357 358 358 358 360 361 359 359 359 359 359 358 357 357 357 359 359 358 357 357 360 361 361 363 363 361 363 364 363 365 366 364 363 362 362 360 362 362 363 364 363 363 363 363 363 363 363 363 363 362 361 362 362 360 361 362 362 362 362 361 361 364 363 362 360 360 360 360 360 357 354 361 363 363 359 358 356 357 362 364 363 360
360 359 358 358 358 358 359 360 360 361 361 362 361 360 359 358 358 359 360 359 358 357 356 356 359 360 361 362 363 364 365 364 365 366 364 363 363 362 362 362 361 358 356 356 358 360 363 363 362 363 363 364 364 364 365 362 363 362 363 363 364 362 359 359 361 361 360 359 357 358 358 359 357 356 356 359 360 360 361 359 356 356 359 363 362
356 359 359 359 360 361 361 361 360 360 361 361 360 359 360 361 361 362 362 361 358 359 358 357 358 359 360 362 363 363 361 361 362 363 364 364 364 361 360 360 356 355 358 357 358 361 362 363 363 363 366 366 367 367 366 366 362 362 364 365 365 363 361 361 361 361 360 358 359 360 355 356 355 351 350 353 354 355 362 361 359 359 358 361 362
352 350 356 359 361 361 361 361 360 360 359 359 360 361 360 360 359 360 360 360 361 361 361 361 360 359 359 361 362 361 360 361 364 360 361 363 361 357 358 360 361 361 361 359 359 361 361 363 362 364 365 365 367 368 367 366 364 362 361 364 365 363 361 361 361 360 360 358 355 355 352 351 345 350 350 354 359 362 362 361 356 357 359 358 360
350 350 348 349 358 360 361 361 359 358 359 361 362 361 359 358 358 359 359 360 361 362 361 360 359 358 358 359 360 360 358 358 360 347 345 350 361 359 358 360 362 363 361 361 362 361 363 363 364 363 365 365 366 367 367 367 368 365 363 364 364 363 361 358 358 361 359 357 357 357 352 349 347 351 353 353 356 358 358 359 357 357 354 352 350
350 348 349 352 355 356 357 357 357 357 358 359 360 361 360 357 357 358 357 357 360 359 358 358 360 359 358 358 358 358 358 360 343 341 341 341 353 360 360 359 357 359 361 362 363 362 362 361 361 361 361 362 362 363 365 366 365 367 368 366 364 363 363 360 355 355 357 357 354 350 349 349 350 355 353 354 357 359 360 359 359 356 354 351 350
349 347 348 352 353 351 350 349 353 355 355 358 358 359 358 358 357 357 356 359 360 359 360 358 358 359 358 358 357 358 357 351 341 341 341 339 340 355 360 358 361 362 362 363 363 364 364 363 361 361 360 361 362 362 365 367 366 364 364 365 369 362 345 344 351 356 353 349 346 346 348 351 351 357 357 359 362 358 359 356 359 356 355 352 351
346 345 345 346 347 346 345 349 351 351 353 355 357 357 357 357 358 358 357 358 357 357 357 357 357 358 357 358 359 357 358 334 331 334 334 333 336 345 360 362 365 363 363 363 362 363 364 363 363 362 363 364 365 363 363 364 365 366 365 367 356 354 354 349 351 352 353 348 346 347 351 354 353 354 358 363 361 359 357 355 357 355 352 353 356
343 343 344 345 346 346 347 349 349 350 350 353 355 356 356 356 355 355 356 356 355 356 356 356 356 356 355 355 356 356 338 321 325 327 327 328 331 344 357 362 365 365 365 364 365 364 365 365 365 363 364 365 365 364 362 361 363 361 361 356 353 355 354 354 353 354 352 352 353 352 353 355 356 357 359 364 362 362 360 356 356 354 355 359 356
340 341 342 342 342 343 343 344 345 346 346 348 349 350 351 352 353 354 356 357 358 357 356 356 355 354 355 354 354 348 335 317 321 322 323 325 333 349 356 359 362 362 363 364 365 367 366 365 365 363 362 362 363 354 356 362 361 360 354 350 353 356 353 348 340 349 357 355 354 354 353 355 348 360 360 359 359 360 358 356 356 355 352 351 348
341 341 341 341 342 341 342 342 342 342 343 343 344 345 346 347 349 351 352 353 353 355 355 355 356 355 355 355 352 347 340 323 316 318 320 323 335 353 355 355 357 358 359 361 362 364 363 363 364 361 361 362 349 329 333 347 358 359 352 351 350 351 351 347 333 331 331 333 334 336 335 332 329 327 326 326 341 352 355 352 349 351 347 346 347
340 340 339 340 340 341 342 341 341 341 342 340 340 342 345 345 346 348 350 350 351 353 354 352 351 350 350 350 348 346 340 324 314 315 316 320 337 351 354 354 355 356 357 359 360 360 360 357 357 359 359 362 331 327 329 347 357 360 357 355 352 351 350 348 346 342 334 333 333 332 332 332 334 334 333 330 328 339 354 348 348 348 347 347 346
339 339 339 341 341 342 341 341 340 341 341 342 343 343 345 346 347 348 349 349 348 348 349 347 346 345 346 346 342 343 340 331 313 312 313 317 336 352 351 352 352 353 354 355 357 357 357 356 352 354 357 351 324 324 326 346 349 355 358 357 355 356 356 348 346 343 344 346 347 348 349 345 351 353 348 336 338 348 357 355 352 350 347 348 347
339 340 341 341 341 341 341 340 339 338 337 338 340 341 344 346 346 346 346 347 347 347 349 345 342 338 339 340 339 340 337 333 322 310 311 315 321 348 351 349 349 351 352 351 351 353 354 354 348 327 322 323 319 318 320 330 346 351 354 354 354 355 357 347 346 346 347 347 351 351 352 354 353 354 355 354 354 357 358 360 362 359 352 349 346
337 338 338 339 339 338 337 336 336 337 337 337 338 339 339 340 340 340 340 344 345 345 345 341 337 335 335 336 337 337 336 334 325 310 309 310 314 331 348 348 348 348 348 350 350 348 349 349 349 327 316 315 312 310 312 320 338 355 357 356 355 356 348 343 344 344 344 345 344 346 349 349 350 348 345 344 345 347 346 346 350 352 349 344 339
337 336 335 334 336 336 336 336 336 335 336 335 334 334 336 337 336 335 336 336 334 333 334 334 332 330 329 329 331 332 332 329 330 316 310 309 310 316 336 336 335 342 345 346 349 349 348 348 345 326 314 314 312 310 310 317 325 348 358 328 329 332 349 347 345 342 338 338 343 344 344 345 341 339 338 339 338 337 335 336 337 339 338 339 339
334 333 333 332 331 329 329 330 332 333 332 333 332 331 333 333 333 333 332 331 331 330 329 329 328 325 324 323 323 324 326 329 325 326 314 308 308 310 314 326 323 343 340 341 339 340 342 341 335 322 310 308 308 311 314 317 330 324 309 316 320 328 339 340 339 336 335 340 343 342 341 341 338 336 336 336 334 334 332 333 334 335 334 333 332
334 331 330 327 327 327 326 326 327 328 330 330 330 330 330 332 332 332 332 330 328 327 327 327 326 324 322 320 321 322 322 325 323 322 322 312 309 308 311 312 316 333 337 336 335 334 333 333 327 312 308 305 307 310 312 319 322 308 312 315 324 333 338 336 336 332 334 338 341 340 340 340 338 336 335 336 334 336 334 334 335 335 334 332 332
331 328 326 325 324 324 324 323 325 327 328 329 329 330 330 330 329 330 330 329 328 326 326 326 324 322 322 320 320 320 321 322 323 322 322 321 314 311 312 315 315 317 333 334 335 333 319 311 309 311 312 310 311 315 319 318 314 315 314 316 331 336 335 336 336 337 339 338 340 342 339 337 338 339 341 339 337 335 334 331 330 329 328 328 328
330 327 326 325 324 324 322 322 323 324 324 325 326 327 328 329 329 328 328 328 329 328 326 323 322 321 320 320 320 320 320 320 322 324 323 321 322 317 316 318 323 323 326 326 322 318 314 314 313 315 318 323 331 332 332 330 320 320 323 329 334 335 337 337 332 332 334 335 338 336 335 336 337 339 340 338 336 332 331 330 328 326 325 324 322
329 327 325 324 325 324 321 319 318 318 319 322 322 322 323 324 325 327 329 330 330 329 328 325 323 320 319 319 320 323 321 321 322 323 322 320 321 322 325 326 323 324 330 329 326 328 329 327 324 318 320 320 325 326 326 327 328 326 329 332 334 335 336 338 336 334 332 333 335 333 333 335 337 336 336 336 335 335 335 331 328 326 327 327 325
328 328 327 327 326 325 324 324 319 315 314 314 314 317 320 321 320 319 320 322 328 326 325 323 320 320 321 322 323 325 326 322 318 315 316 315 317 318 321 323 323 323 324 323 325 328 331 326 324 332 332 332 332 332 334 332 332 332 329 330 332 332 333 331 332 337 336 335 332 332 331 331 332 334 334 332 332 331 334 331 329 327 327 327 324
331 328 327 325 324 325 322 320 318 316 313 312 310 310 312 317 319 318 317 316 319 324 325 321 320 319 321 321 322 320 319 316 315 303 308 300 305 311 318 318 317 320 317 308 319 332 333 333 332 332 332 332 332 331 330 329 327 328 330 328 328 331 336 334 332 332 333 332 328 327 328 333 330 329 328 328 327 328 330 329 329 328 327 327 322
328 325 323 321 320 320 320 319 320 319 316 314 312 310 306 300 305 315 314 310 303 299 306 318 317 319 316 316 318 315 314 315 299 293 293 293 293 294 296 295 295 304 307 305 314 331 332 332 331 331 330 330 329 329 328 328 327 327 329 327 333 332 331 331 332 333 332 331 329 328 326 324 324 324 324 324 324 323 322 323 325 326 323 320 318
327 326 324 321 320 319 317 317 318 319 319 319 317 314 311 310 297 298 305 304 298 294 294 296 298 303 317 316 314 302 302 295 291 292 292 292 294 295 295 295 296 296 299 318 330 329 329 329 328 329 329 329 327 327 328 328 327 326 326 326 328 327 327 327 327 327 327 326 325 325 324 323 322 322 320 320 320 319 319 320 321 321 319 318 317
327 326 325 323 323 323 321 321 320 319 318 319 319 318 315 313 312 300 296 300 297 294 293 293 293 295 295 301 314 320 304 297 291 292 291 294 296 296 296 296 296 299 303 305 328 325 326 326 325 326 326 326 325 326 325 324 324 323 322 320 319 320 321 321 322 324 322 321 320 320 319 318 317 317 317 317 317 317 317 317 317 317 317 317 317
325 326 328 327 326 324 322 322 322 321 320 320 319 319 317 316 314 313 312 297 296 296 295 295 293 293 294 292 291 292 293 292 292 293 294 295 294 296 300 299 300 302 311 323 325 323 324 323 323 324 324 323 324 323 323 322 322 320 320 319 317 317 318 319 320 318 317 316 316 316 315 316 316 316 315 316 315 315 314 314 314 315 316 317 316
329 328 327 326 326 326 325 324 322 321 321 321 320 319 319 320 319 318 317 317 318 306 299 296 296 299 295 293 294 294 294 295 295 296 295 296 295 297 302 315 302 303 312 325 324 322 322 322 322 322 322 322 321 320 319 319 319 318 317 316 316 317 318 320 320 317 316 315 314 314 315 315 314 313 313 314 314 315 315 315 315 316 316 315 314
328 329 328 327 327 327 327 325 323 323 322 323 323 321 320 321 321 320 319 318 318 318 319 320 305 296 307 304 295 295 295 295 296 296 295 296 298 297 300 327 324 321 321 322 321 320 320 320 320 321 321 319 318 317 316 316 315 315 314 314 314 313 314 313 313 314 314 313 312 312 312 312 313 314 314 314 314 313 313 313 313 313 314 313 313
325 325 327 326 325 326 326 327 327 325 325 324 324 323 321 321 321 320 319 321 319 318 318 319 319 310 301 296 294 296 296 296 297 297 298 299 301 304 326 321 320 320 319 319 319 318 319 319 319 319 319 319 319 319 318 316 315 314 314 313 312 312 312 311 311 312 312 311 310 310 310 311 311 311 311 311 311 311 312 312 312 312 312 312 312
324 324 324 326 326 326 326 327 327 326 325 325 326 327 326 323 323 322 322 321 320 319 319 320 320 319 317 320 314 300 298 298 299 299 300 302 305 318 321 320 319 319 318 318 318 317 317 317 318 318 318 318 318 318 319 318 319 319 318 318 316 315 314 313 313 313 311 310 310 310 310 310 310 310 310 310 310 311 311 311 311 310 309 309 306
323 322 323 324 326 327 326 326 324 321 325 324 323 323 324 326 325 323 322 321 320 319 319 319 318 318 318 319 318 320 316 307 305 307 308 308 315 320 320 319 319 317 316 317 317 317 316 316 317 316 317 316 316 316 316 316 316 315 315 316 315 313 311 313 314 314 314 313 312 312 311 310 310 310 310 310 309 309 309 310 309 309 310 307 307
326 321 318 322 323 324 323 324 325 324 323 322 320 321 320 322 324 324 324 323 322 320 319 320 318 317 318 320 321 320 319 319 317 317 317 317 318 319 319 318 317 316 316 316 315 315 315 315 315 316 315 315 314 315 314 314 314 315 315 313 313 312 311 311 311 311 310 309 309 309 309 309 309 309 309 309 309 309 309 309 308 308 308 307 308
326 326 324 320 324 325 324 324 324 324 323 321 319 318 318 322 323 323 324 323 323 321 320 319 317 318 318 320 319 320 317 317 317 317 317 317 317 317 317 316 316 315 315 315 314 314 314 314 314 314 314 313 313 313 313 314 313 312 313 312 310 309 308 307 307 306 306 306 307 307 306 307 307 308 308 308 308 308 307 307 307 307 307 307 307
325 325 325 324 322 324 325 324 324 324 323 322 321 321 320 320 323 324 324 323 322 322 321 320 319 317 317 314 302 306 319 317 318 318 317 317 317 316 316 316 315 314 314 313 313 313 313 313 312 312 312 312 312 312 312 311 311 311 310 309 309 307 307 307 306 306 306 306 305 305 305 305 306 306 305 306 305 305 307 306 306 306 306 307 306
323 323 323 324 323 324 324 324 324 324 325 324 323 321 321 321 321 322 322 322 322 322 321 319 318 317 309 297 298 299 316 318 318 317 317 316 316 316 315 316 315 315 314 313 313 313 313 313 311 311 310 310 310 310 310 310 309 309 308 308 308 306 306 306 306 306 305 306 305 304 304 304 304 304 304 303 304 305 305 305 305 305 305 305 304
322 321 322 322 322 323 323 323 324 323 323 322 322 322 322 321 321 321 321 321 321 321 321 318 317 317 315 305 305 305 318 318 317 316 316 315 315 314 314 313 313 314 314 313 313 313 312 311 310 309 309 309 310 310 309 309 309 308 308 307 306 306 305 305 304 304 304 304 304 304 303 304 304 304 304 305 304 304 304 303 303 303 303 303 303
320 321 322 321 322 322 322 322 321 321 322 321 321 322 322 321 321 321 320 320 320 321 320 319 317 317 317 312 311 315 317 317 316 316 315 314 314 313 313 313 313 312 312 312 312 312 311 309 308 308 310 309 310 310 309 308 308 307 307 306 305 304 304 304 303 303 303 303 303 303 303 303 303 303 303 303 303 302 302 303 302 302 302 302 302
320 319 318 318 319 320 319 321 320 321 320 320 320 320 321 321 321 320 319 319 320 320 319 318 318 317 316 317 317 317 316 316 315 315 314 314 314 313 312 312 312 312 311 311 311 311 310 308 308 308 308 308 308 308 307 307 307 307 306 305 305 303 303 303 303 303 303 302 302 302 302 302 302 301 302 302 302 302 301 302 302 300 300 301 301
317 317 318 317 318 318 318 319 319 319 319 319 319 319 319 320 320 320 319 319 319 320 318 318 318 317 316 316 316 316 315 315 314 314 313 313 312 312 312 312 312 311 311 310 311 310 309 309 307 307 307 307 307 306 306 306 305 305 305 305 304 303 303 303 303 302 302 302 301 301 300 300 300 301 300 301 301 301 301 301 301 301 301 300 301
316 316 317 317 316 317 318 318 318 318 318 317 318 318 318 318 319 319 319 319 319 319 317 317 317 316 316 316 315 315 314 313 312 311 311 312 312 312 311 311 310 311 310 310 310 309 308 308 307 307 307 307 306 306 305 305 305 304 304 304 303 303 303 302 302 302 301 301 300 300 299 300 299 300 299 299 300 300 300 300 300 300 301 300 300
315 315 315 316 315 315 316 317 316 316 316 317 317 317 317 317 318 317 318 319 319 318 317 317 316 315 315 315 315 313 313 312 311 311 311 311 311 311 310 311 310 310 309 309 309 308 308 307 307 307 307 307 306 305 305 304 304 303 303 303 303 302 299 299 302 301 302 301 301 300 300 299 299 299 299 300 300 300 299 299 300 300 300 300 301
315 315 314 315 315 314 315 315 316 315 315 316 316 316 316 316 316 317 318 318 318 318 317 316 315 315 314 314 312 312 311 310 309 309 309 309 309 309 310 310 310 309 308 308 308 308 308 307 307 307 306 306 306 305 304 304 303 302 302 302 300 295 293 294 298 301 297 301 301 300 301 300 300 299 299 300 300 300 300 300 299 299 300 300 301
314 315 314 314 314 314 315 315 315 315 315 314 314 315 315 315 315 315 315 316 316 315 314 313 312 311 312 311 311 310 309 308 307 308 308 309 309 309 309 309 308 308 307 307 307 306 306 307 307 306 306 305 305 305 303 303 302 302 302 302 293 292 292 294 295 295 299 301 301 301 300 300 300 300 300 300 300 300 299 299 299 299 300 300 301
314 315 314 314 314 314 314 314 314 314 315 314 313 313 313 313 313 314 313 313 313 311 309 310 310 309 310 310 310 310 309 308 308 308 308 308 308 308 308 308 307 307 307 306 306 306 306 305 305 305 305 304 303 303 302 302 302 302 297 292 291 290 288 290 298 290 289 293 301 301 300 299 299 299 299 299 299 299 299 299 299 300 300 300 300
Wind_Speed
13 12 11 12 12 12 12 10 11 9 10 10 10 9 9 8 8 8 6 7 7 7 7 7 7 6 7 7 7 6 6 6 5 5 5 5 5 6 6 5 5 5 5 6 6 5 5 5 5 4 3 4 4 4 4 4 3 3 3 3 3 3 3 3 3 2 1 1 1 2 3 2 4 2 4 5 4 4 4 5 4 4 3 3 6
13 12 11 10 13 13 13 11 10 9 10 10 10 9 9 8 8 7 8 7 7 8 8 7 7 7 7 7 7 7 7 6 7 6 6 6 7 6 6 6 6 6 6 6 6 5 5 6 5 5 4 5 5 6 5 4 4 5 4 4 3 3 4 3 3 2 1 2 1 1 2 1 4 3 4 3 4 3 5 4 3 3 3 2 3
12 11 11 11 13 13 12 11 11 11 12 10 10 10 9 8 7 8 8 7 7 7 7 7 6 7 7 7 6 7 7 7 6 6 6 6 7 7 6 6 6 6 6 6 7 6 6 6 6 6 5 6 6 6 6 5 5 5 5 4 4 4 4 4 3 3 2 1 1 2 2 1 2 3 2 3 2 3 3 4 3 3 3 3 3
11 11 11 13 14 13 12 11 12 12 11 10 10 10 8 8 7 8 8 7 7 7 7 7 6 6 7 7 7 7 7 7 7 6 7 7 7 7 7 7 7 7 7 7 6 6 6 7 7 6 6 6 6 6 6 5 5 5 5 4 4 4 2 3 4 3 2 2 1 1 1 0 2 1 1 1 2 3 2 2 3 3 3 2 3
10 11 12 12 13 12 12 12 12 12 12 10 11 10 9 8 7 8 8 8 7 7 6 7 7 7 7 7 7 7 7 7 7 7 7 7 7 8 8 7 7 7 7 7 6 7 7 7 7 6 5 6 6 6 6 7 6 6 5 4 4 4 3 3 3 4 3 3 2 2 1 1 0 0 2 2 0 1 2 2 3 3 2 2 3
11 10 10 11 10 11 11 11 12 12 12 11 11 11 10 10 9 8 9 9 8 8 8 7 7 8 8 8 7 7 7 7 7 7 8 8 8 8 8 8 8 8 7 7 7 7 7 7 7 7 7 7 7 6 5 6 6 6 7 5 5 4 4 4 4 4 4 3 3 3 3 2 2 1 1 2 3 1 0 1 2 3 3 3 3
11 11 12 13 12 13 13 12 10 10 11 11 10 10 10 10 10 9 9 9 9 9 9 9 7 8 8 8 8 8 7 7 7 7 8 8 8 9 9 8 7 7 7 8 8 8 8 8 7 8 8 8 8 7 7 7 6 7 6 6 5 5 5 5 4 5 4 4 3 3 2 1 1 2 1 1 2 2 2 1 1 3 3 3 3
10 12 12 12 12 14 13 12 13 11 9 9 9 9 9 8 8 8 7 7 8 8 9 9 8 8 8 8 7 7 7 7 7 7 8 8 8 8 8 5 2 3 5 7 10 9 8 8 8 8 8 8 8 7 8 7 6 7 6 6 5 5 6 5 4 4 4 4 4 2 2 1 2 2 1 3 3 2 0 1 2 3 2 2 3
9 10 12 12 12 12 12 11 12 13 11 10 11 10 8 8 7 7 7 7 6 7 7 8 7 8 7 7 7 7 7 7 7 7 7 9 6 5 8 4 7 6 6 8 9 8 9 9 8 8 7 8 9 9 9 7 6 6 6 6 6 6 6 6 4 4 4 4 4 2 3 3 2 2 2 2 2 2 1 1 1 1 1 1 2
9 9 10 11 11 12 12 11 12 12 12 12 12 10 9 8 8 8 8 8 7 7 7 6 7 7 6 7 7 7 7 6 7 9 7 4 4 6 7 7 7 7 7 7 7 9 10 8 8 9 10 10 11 11 10 11 10 9 7 6 6 6 6 6 5 5 5 5 5 4 4 4 3 3 3 2 1 2 3 1 0 1 2 0 2
8 9 11 12 10 11 10 11 12 13 12 11 9 10 9 8 8 8 8 8 8 7 7 7 7 6 7 6 7 6 6 5 5 7 10 9 7 6 8 7 7 9 8 7 7 8 8 7 8 8 8 9 10 11 11 10 10 11 12 11 8 7 5 7 7 5 4 5 4 4 5 4 3 1 3 2 2 2 0 0 1 1 2 3 2
10 10 10 8 8 7 10 10 11 12 12 11 10 9 7 7 7 7 7 7 6 7 7 7 7 7 6 7 7 7 7 6 9 10 10 10 10 9 8 7 8 9 8 8 7 8 8 8 8 7 7 7 8 7 8 10 10 10 9 11 10 10 8 6 8 8 6 5 6 9 8 4 2 2 3 2 2 2 1 1 1 2 1 2 1
8 5 5 6 6 5 1 4 9 10 12 9 8 8 8 7 7 7 7 6 5 6 6 6 6 6 7 7 7 7 7 6 9 7 6 5 6 8 8 9 8 8 7 8 8 7 7 7 8 7 7 7 7 8 8 7 7 8 9 7 10 5 7 12 8 8 8 7 6 6 7 7 4 3 4 3 2 3 1 2 1 2 2 2 1
8 7 5 5 7 8 11 10 10 10 9 9 8 8 8 8 7 5 5 5 5 5 6 5 5 5 6 6 6 6 3 7 4 2 2 3 3 3 7 8 7 8 8 8 7 8 8 8 7 7 8 7 6 6 7 7 7 6 6 3 8 8 12 14 13 10 6 7 8 8 6 4 3 4 5 3 3 2 3 3 2 3 3 3 0
8 9 9 7 7 7 7 8 8 8 6 5 6 7 7 6 5 5 5 6 5 4 4 4 4 5 4 4 5 4 4 5 4 1 2 2 3 4 5 5 6 7 7 8 8 8 8 7 8 9 8 8 6 5 6 6 7 6 3 5 6 3 2 2 4 6 6 5 5 6 5 6 7 7 5 5 5 3 3 4 3 3 2 2 3
8 7 6 5 5 4 4 2 1 1 1 1 2 4 6 7 6 5 4 3 3 3 3 2 2 3 2 2 3 4 4 4 3 3 2 2 2 4 4 5 5 6 7 7 6 6 6 6 7 8 9 9 5 2 4 5 6 5 3 4 3 3 2 1 2 4 5 6 6 6 5 4 5 2 2 3 3 4 3 3 3 3 4 5 5
9 8 8 8 7 6 5 6 5 3 2 1 1 2 3 2 1 3 4 4 4 4 3 3 2 1 1 1 2 3 4 5 3 1 2 3 5 4 3 4 5 6 6 6 5 5 5 4 5 6 7 8 3 5 2 4 6 3 7 7 5 3 3 3 4 5 4 5 5 5 4 4 6 6 7 9 7 4 2 3 5 5 5 6 5
6 6 7 5 5 5 5 6 7 6 5 3 1 2 2 2 4 7 4 3 3 3 3 4 3 2 2 1 1 3 4 6 6 5 4 4 5 3 3 3 4 4 5 4 4 4 4 5 7 7 7 6 4 5 6 6 6 6 6 6 7 7 7 4 3 2 1 1 3 4 5 6 6 6 5 5 7 6 5 4 3 4 5 6 5
5 5 6 6 5 5 5 5 6 6 6 5 4 4 4 3 3 4 2 2 2 3 2 4 5 4 3 3 5 4 4 6 8 7 6 6 4 2 2 3 3 3 4 5 5 5 6 5 1 3 5 2 5 8 7 3 6 8 6 5 6 7 7 10 7 6 5 5 4 4 5 6 6 4 3 6 9 8 5 3 2 4 5 5 4
7 6 6 6 6 7 7 9 8 6 7 6 4 3 1 2 2 1 1 2 2 1 1 3 5 5 5 5 4 4 5 5 7 8 8 8 8 4 2 4 5 6 6 6 6 6 6 5 1 5 4 1 2 3 3 6 10 11 9 8 8 8 5 8 8 8 8 8 7 7 6 5 5 5 5 5 5 4 4 3 2 3 3 3 3
9 9 10 9 9 8 8 8 7 6 5 5 4 3 3 3 2 2 1 1 1 0 3 5 6 6 6 6 6 7 6 5 8 9 10 10 10 7 0 2 3 4 5 5 5 7 6 5 1 3 4 4 4 5 6 6 8 8 8 8 8 5 7 5 7 10 6 5 4 4 4 5 5 3 3 3 3 3 4 5 4 4 1 2 2
8 10 10 9 8 8 8 8 8 7 7 6 7 6 6 6 5 5 5 6 7 6 5 6 7 7 6 7 8 8 9 11 6 9 11 11 11 11 5 4 3 3 4 5 5 5 6 6 4 3 3 3 4 5 7 7 8 6 4 8 5 7 6 3 3 3 2 2 2 3 2 2 4 4 3 3 4 5 5 6 6 6 6 5 3
7 8 8 8 9 9 8 9 7 7 7 7 8 7 6 7 8 8 8 8 8 8 7 7 7 7 6 6 6 5 5 6 9 6 9 10 9 8 7 5 6 3 3 4 5 4 5 4 5 9 8 10 9 6 5 8 6 7 11 11 12 11 8 5 5 2 3 3 5 6 6 4 4 3 3 4 4 5 6 6 6 7 7 7 7
7 9 8 8 8 8 8 8 7 5 5 6 7 8 7 7 6 6 7 7 7 8 7 6 7 7 7 5 3 3 3 3 4 7 6 7 7 7 6 6 6 3 3 3 3 2 2 2 2 3 6 4 5 7 8 9 7 8 8 6 3 5 3 2 3 3 5 5 6 7 7 5 3 4 4 4 5 5 6 7 7 7 7 7 7
7 7 7 7 8 7 8 8 6 6 8 9 9 8 9 9 9 8 8 8 8 7 6 6 6 6 5 4 4 5 5 4 4 5 7 5 6 7 7 7 8 7 3 3 2 3 4 2 2 4 6 2 2 1 5 5 5 6 6 5 4 1 3 4 5 5 5 5 4 4 4 3 1 2 5 6 7 6 7 7 7 7 7 7 7
6 6 6 7 6 6 7 6 6 7 7 6 7 7 7 6 6 7 7 7 6 7 6 5 5 4 4 4 4 4 4 4 4 4 4 4 4 7 6 8 8 6 4 3 4 1 2 2 1 2 4 2 2 1 1 2 3 2 7 8 2 1 2 3 3 2 2 3 2 3 4 4 4 4 4 4 5 5 6 7 7 6 6 5 6
6 6 6 6 6 6 7 4 4 5 5 5 5 5 5 6 6 7 6 6 5 5 5 3 3 3 3 4 3 2 2 2 3 4 4 5 5 5 4 5 6 4 2 3 2 0 0 0 1 2 2 1 1 3 2 3 2 1 2 2 3 2 0 0 1 2 4 5 4 4 5 4 3 3 4 4 4 5 4 5 5 5 4 4 4
6 6 6 5 4 5 6 8 7 5 6 6 5 5 6 6 6 6 5 4 4 4 4 4 3 2 2 1 1 1 1 2 4 5 6 6 6 6 6 5 5 4 4 3 3 2 1 1 4 3 3 3 1 0 1 2 1 2 3 2 2 1 2 3 3 1 2 4 5 6 5 4 4 3 4 4 4 4 3 3 4 4 4 3 3
6 6 5 5 6 5 5 5 5 5 5 6 6 6 5 5 5 5 5 4 4 3 3 3 3 2 2 3 2 2 3 5 5 4 4 5 5 5 5 5 5 4 4 6 4 1 1 1 2 3 3 4 4 4 4 4 5 4 3 3 1 3 1 1 2 3 3 5 6 6 6 4 4 4 5 5 4 4 3 4 3 3 2 2 2
6 5 4 5 4 4 4 4 4 4 5 5 6 7 9 9 7 4 4 7 9 8 6 4 3 2 2 3 2 3 3 2 4 6 6 5 4 5 7 7 6 5 7 9 5 2 3 3 3 4 4 4 5 5 5 5 5 6 6 5 3 2 3 4 4 4 4 5 5 5 5 6 6 5 5 5 4 4 4 4 3 2 3 3 3
5 5 4 4 4 3 4 4 3 3 3 4 5 6 6 7 10 11 8 7 7 9 9 8 8 8 4 2 3 2 3 2 4 6 6 6 5 5 4 4 4 6 7 4 0 4 4 5 5 5 5 5 5 5 5 5 5 6 6 5 5 5 5 6 6 5 5 6 6 6 6 6 5 5 4 4 4 4 4 4 4 3 2 2 2
5 4 4 4 4 3 3 3 3 3 3 3 3 4 5 6 6 5 5 7 6 7 8 8 9 9 10 7 5 2 3 3 7 7 7 6 8 8 6 5 3 3 3 6 4 6 6 6 6 6 5 6 6 6 6 6 5 5 5 5 6 7 7 6 6 6 6 7 7 7 6 6 5 5 4 4 4 4 3 3 2 2 2 2 2
5 5 4 4 4 4 3 3 3 3 3 3 3 2 3 4 6 5 3 3 7 10 9 8 9 9 9 9 8 5 4 6 6 5 4 6 7 8 7 11 11 8 2 5 7 7 6 6 6 6 6 7 6 6 6 7 6 7 6 6 6 6 6 6 6 7 7 7 7 6 5 5 4 4 4 4 3 3 3 2 2 1 1 0 1
5 4 3 3 3 2 2 2 3 2 2 2 2 2 2 2 3 4 5 4 3 5 10 11 8 8 9 8 7 6 5 4 5 5 6 7 7 7 6 7 11 12 10 7 7 7 7 7 7 7 7 7 7 7 7 7 7 6 6 6 6 6 6 6 7 7 6 6 6 5 5 5 4 3 3 3 3 2 1 1 1 0 0 1 1
4 4 5 3 3 3 2 2 2 2 2 2 2 2 2 2 2 2 2 3 3 4 4 5 7 9 7 7 8 8 8 7 7 6 7 6 6 8 8 3 7 8 9 8 8 7 8 8 7 7 7 7 6 6 6 6 5 6 6 5 5 5 6 6 6 6 6 5 6 5 5 4 3 3 2 2 2 2 2 1 1 1 1 2 2
3 3 3 3 2 2 2 2 2 2 2 2 2 2 3 2 2 2 2 2 3 3 3 3 3 3 6 8 8 9 9 9 9 9 8 9 7 7 4 7 7 8 8 7 7 7 7 7 7 6 6 6 5 5 5 5 5 5 4 4 5 5 5 5 5 5 5 5 5 5 4 4 4 3 3 2 2 1 1 2 2 1 2 2 1
3 3 3 3 2 2 2 2 2 2 2 2 1 2 2 2 2 3 3 2 3 2 3 3 2 3 2 4 5 6 6 8 9 10 10 9 8 6 6 6 6 6 7 7 7 7 7 7 6 6 6 6 6 5 5 5 5 5 5 5 5 5 5 5 4 4 4 5 4 4 3 3 2 2 2 1 1 1 1 1 1 1 1 2 2
3 4 3 3 2 1 0 1 2 3 2 2 2 2 2 2 3 3 3 4 4 4 4 3 2 2 2 2 1 2 3 1 1 4 4 6 7 6 6 6 6 6 6 6 6 6 6 6 6 6 6 6 6 6 6 6 5 5 5 5 6 6 5 5 5 4 4 3 3 3 3 3 3 2 2 2 2 2 2 2 3 2 1 2 3
2 3 1 3 2 3 2 2 1 1 1 1 1 2 2 3 3 3 4 4 5 4 4 4 3 3 2 2 2 2 3 2 4 5 5 5 5 5 5 6 6 6 5 5 6 6 6 6 6 6 6 6 6 5 5 5 5 5 4 4 4 4 4 4 4 4 4 4 3 3 3 3 3 3 3 3 3 3 3 3 3 3 3 2 2
5 3 2 1 2 1 3 3 2 2 2 2 1 1 2 3 3 3 4 4 5 5 5 4 4 3 3 3 2 2 2 3 4 4 4 5 5 5 5 5 5 5 5 5 5 5 5 6 5 6 6 5 5 5 4 4 3 3 3 4 4 4 4 4 4 4 4 4 4 4 4 4 4 4 4 3 4 4 4 3 3 3 3 3 2
5 5 5 3 4 4 3 3 3 3 3 3 2 2 1 2 3 3 3 4 4 4 5 4 4 3 3 1 3 4 2 4 4 3 4 4 4 4 4 4 4 5 4 5 4 5 5 5 5 5 5 4 4 4 4 3 3 3 3 3 3 4 4 4 4 3 3 3 3 3 3 3 4 4 4 4 3 4 3 3 3 2 2 2 3
5 5 4 5 4 4 4 5 4 4 4 4 3 3 3 3 3 3 3 4 4 4 4 4 4 3 3 1 4 5 3 4 4 4 4 4 4 4 4 4 4 4 4 4 4 4 4 4 4 4 4 4 4 3 3 3 3 3 3 3 3 3 3 3 3 4 3 3 3 3 3 3 4 3 3 3 4 3 3 3 3 3 3 3 3
4 5 5 5 5 5 5 5 5 5 5 5 5 4 4 4 4 4 4 4 4 4 4 5 5 5 4 4 5 6 3 4 4 4 4 4 4 4 4 3 4 4 4 4 4 4 4 4 4 4 4 4 4 4 3 3 3 3 3 3 3 3 3 3 3 3 3 3 3 3 3 3 3 4 4 4 4 4 4 3 3 3 3 3 3
4 4 4 4 4 5 5 5 5 4 4 5 5 4 4 5 5 5 5 5 5 5 5 5 6 6 5 5 5 5 5 5 5 4 5 4 4 4 4 4 4 4 4 4 3 3 3 3 4 4 3 3 4 4 4 4 3 3 2 2 3 3 3 3 3 3 4 4 4 4 4 4 4 4 4 4 4 4 4 4 4 3 4 3 3
4 4 4 4 4 4 5 4 5 5 5 5 5 4 4 5 6 6 5 5 5 5 5 5 6 7 7 6 6 5 5 5 5 5 5 5 4 4 4 4 4 3 3 3 3 3 3 3 3 3 3 3 3 3 4 4 4 3 3 3 3 3 3 4 4 4 4 4 5 5 5 6 6 5 5 4 4 4 4 3 3 3 3 4 4
4 4 4 4 4 3 4 4 5 5 5 6 6 6 6 6 6 7 6 6 5 5 5 6 6 7 7 7 6 6 6 6 5 5 5 4 4 4 4 4 3 3 2 3 2 2 2 2 2 2 2 3 3 3 3 3 3 3 3 3 3 3 3 4 4 5 5 5 5 6 6 7 7 6 5 5 4 4 4 4 3 3 4 4 4
5 4 4 4 4 4 4 4 5 5 5 5 5 6 6 6 6 5 5 5 5 5 6 6 7 7 7 6 6 6 5 5 5 5 5 5 4 4 4 4 4 3 3 3 2 2 2 2 2 2 2 2 3 2 2 2 2 3 3 3 3 4 4 5 5 5 5 5 5 6 6 6 5 5 3 3 4 3 4 4 4 4 4 4 4
4 4 4 4 4 4 4 4 4 4 5 5 5 5 5 5 5 5 5 4 5 5 6 6 6 6 5 4 4 4 4 5 5 5 5 5 5 4 4 4 4 3 3 3 2 2 1 2 2 1 2 2 2 1 2 3 3 2 3 3 3 5 6 5 3 4 5 5 4 4 5 4 4 4 4 4 4 3 4 4 4 4 4 4 4
3 4 4 4 4 4 4 4 4 4 4 4 4 4 4 4 4 4 4 5 5 4 3 5 5 5 6 5 5 4 3 3 3 4 4 4 5 5 4 4 3 3 3 3 3 2 2 2 2 1 1 1 1 2 2 2 1 2 3 3 6 7 5 7 6 5 4 4 4 4 4 4 4 3 3 3 3 3 4 4 5 5 5 5 5
4 4 4 4 4 4 4 4 4 4 4 4 4 4 3 3 3 4 4 3 3 2 2 4 5 6 5 4 4 3 3 3 4 5 5 5 5 4 4 4 4 3 2 2 2 2 2 2 2 2 2 1 2 2 1 1 1 2 3 4 5 4 4 3 4 4 6 5 5 5 5 5 4 4 3 3 3 4 4 4 5 5 5 5 5
4 5 4 5 5 4 4 4 3 4 4 3 4 3 2 2 2 1 2 3 3 3 4 5 5 5 4 4 4 4 4 3 3 3 4 4 4 4 4 4 3 3 3 3 3 3 2 2 2 2 2 2 2 2 1 0 2 2 6 6 3 2 2 4 2 5 4 7 4 5 5 5 5 5 4 4 4 4 4 5 5 5 5 5 5
Wind_Direction
197 199 199 203 199 196 197 196 203 205 209 207 214 214 214 214 214 218 208 214 213 214 215 223 227 231 241 244 247 249 248 256 254 249 241 240 240 248 260 259 257 257 252 262 261 255 259 267 268 266 273 269 256 259 261 254 252 245 230 219 219 203 214 227 253 251 173 26 328 2 31 350 81 50 106 103 91 78 77 66 54 53 66 83 89
202 198 198 200 203 202 204 198 201 203 208 208 211 214 214 212 212 210 215 214 213 216 215 219 221 228 237 240 243 246 244 240 251 249 246 240 242 240 238 240 247 251 256 256 254 256 255 257 262 262 252 259 264 260 262 265 262 253 226 236 229 210 208 228 235 268 223 185 131 43 59 51 102 38 61 62 67 65 58 60 62 60 48 73 76
198 195 196 200 204 204 201 198 197 201 208 212 215 218 214 215 210 215 219 217 208 215 214 218 217 222 234 239 236 241 237 245 245 243 242 239 243 252 253 249 247 251 246 245 249 249 249 251 256 261 256 251 249 254 261 266 271 273 259 239 239 230 205 225 228 234 248 197 202 196 106 52 56 86 60 57 60 35 41 36 30 43 55 33 41
193 192 195 202 205 203 200 200 200 203 207 211 216 218 219 215 211 218 219 220 214 210 215 220 216 216 225 230 233 239 238 239 242 237 234 236 239 242 248 249 254 254 255 258 256 251 252 254 257 260 261 258 259 260 256 258 259 257 256 235 243 253 227 216 230 254 238 248 184 301 67 157 133 108 96 66 18 40 20 43 37 36 26 55 57
199 198 196 200 205 206 204 200 201 203 206 208 211 214 216 218 212 217 219 221 221 217 211 215 220 216 224 225 229 233 236 236 235 239 239 236 234 241 245 244 246 250 256 259 261 260 259 259 260 259 255 258 253 248 247 244 249 250 250 241 242 246 239 229 222 226 227 241 212 186 200 214 139 343 353 317 278 121 77 39 27 31 19 35 54
195 196 201 204 202 208 207 205 206 204 205 208 208 209 210 212 212 211 215 215 213 215 215 215 214 217 221 224 226 228 231 233 233 239 242 240 236 239 240 241 243 247 252 252 250 251 256 260 260 262 265 265 264 261 258 255 251 248 249 249 243 237 236 233 230 227 233 242 243 202 200 234 204 217 30 330 306 308 210 125 74 41 11 23 35
191 192 195 199 200 208 211 211 207 205 206 210 209 207 209 211 212 214 211 215 214 216 214 212 209 215 217 220 225 225 226 231 233 236 242 246 245 242 245 244 252 259 265 266 257 251 252 254 255 256 260 260 263 262 259 254 253 258 254 253 245 239 238 235 227 227 227 236 224 237 238 177 259 269 135 299 277 303 317 325 41 54 52 22 29
201 196 197 198 199 203 205 205 210 208 205 206 207 206 208 212 214 216 218 218 224 226 223 213 209 211 213 217 221 221 220 225 226 231 237 241 241 241 242 256 292 282 277 290 290 280 261 255 256 257 254 254 256 260 260 263 258 258 253 248 246 249 252 243 231 231 237 234 242 231 238 256 230 237 219 222 223 221 314 353 27 19 42 66 31
241 227 204 198 198 197 199 197 209 209 204 206 214 212 205 200 201 207 207 218 224 226 228 228 220 215 214 215 217 218 223 225 227 225 226 231 241 289 280 173 222 235 242 232 239 251 269 262 258 259 258 250 249 255 267 278 275 264 260 251 242 238 246 245 233 238 232 239 234 224 242 242 236 228 225 225 251 315 103 307 70 25 348 124 110
197 231 243 226 208 205 199 196 202 203 203 202 202 194 193 192 194 200 203 207 211 214 223 231 234 229 222 215 214 214 221 226 218 217 235 248 181 225 245 239 231 226 228 242 249 243 246 253 260 260 258 257 257 254 246 244 242 257 267 261 248 248 245 239 236 229 230 233 240 244 256 257 242 197 238 237 220 205 193 194 284 12 331 4 130
195 195 226 251 239 213 196 197 196 196 196 196 189 191 191 190 192 195 200 203 203 200 209 218 224 227 228 225 221 222 227 229 171 181 216 221 200 217 237 239 243 243 231 230 243 252 256 255 262 255 244 244 247 245 252 256 250 239 243 250 262 256 249 256 241 228 228 246 252 262 271 277 271 250 239 252 225 238 289 148 283 4 7 334 337
195 195 191 200 220 210 208 200 198 197 198 200 200 189 179 182 189 193 201 196 193 201 206 207 216 223 223 224 222 226 234 209 193 218 232 226 208 220 227 223 217 232 239 237 241 249 253 257 259 261 255 257 269 264 250 244 247 252 247 241 240 241 255 354 9 340 311 320 339 333 307 277 274 239 256 254 239 206 226 276 300 312 325 293 293
217 203 172 170 158 172 180 215 216 206 199 194 193 192 190 195 195 196 199 196 191 197 202 203 207 212 220 223 230 229 239 182 200 204 217 238 236 247 242 238 238 236 237 237 241 243 250 258 264 266 271 254 252 262 267 268 245 234 246 254 247 295 47 85 157 181 147 155 171 208 273 314 301 325 320 322 323 294 268 266 275 279 279 275 256
192 190 187 202 179 183 199 201 200 206 202 196 192 190 194 197 196 194 195 191 201 200 201 205 212 214 220 223 226 234 214 58 41 70 103 112 132 214 243 251 251 250 247 245 244 247 247 252 258 260 266 263 257 260 263 264 268 266 261 271 55 92 149 181 186 169 151 166 175 187 211 186 170 237 250 231 239 273 292 294 278 268 255 278 175
181 175 181 179 169 186 207 209 204 200 202 181 180 188 190 180 178 181 187 192 193 194 192 195 194 207 214 220 222 204 84 51 64 72 108 153 140 221 242 249 249 251 252 251 251 252 253 254 257 264 269 269 264 265 272 270 270 272 285 59 131 188 111 126 144 173 182 178 189 199 198 217 201 200 202 215 225 244 270 293 292 276 279 149 176
168 172 162 141 143 148 156 150 61 31 33 352 300 217 196 184 176 174 176 162 150 135 134 155 166 161 167 191 182 137 104 84 111 123 156 160 207 228 225 226 239 249 250 251 250 252 254 259 264 268 272 273 270 196 283 291 278 274 47 128 204 194 102 212 265 216 201 193 193 201 209 239 296 261 298 309 265 236 225 221 215 214 215 211 222
166 164 159 163 181 175 150 134 120 87 78 41 352 335 330 343 331 192 192 202 198 184 161 144 124 121 134 169 155 125 106 51 21 65 163 195 214 226 226 229 233 241 247 251 255 256 260 263 270 276 276 273 87 128 155 243 245 219 149 185 167 170 197 167 97 87 103 144 163 173 179 217 246 270 282 277 268 286 228 228 228 210 211 222 220
126 124 136 147 133 126 126 132 129 131 130 134 140 161 193 212 263 271 235 202 217 230 181 146 142 162 175 127 153 140 100 54 21 11 0 339 293 261 243 246 244 250 254 252 254 260 266 269 270 271 269 267 126 193 196 218 236 208 192 192 182 183 198 189 172 136 113 149 166 179 200 226 251 266 263 257 218 221 201 214 239 214 225 227 225
89 101 111 112 108 102 105 109 125 139 140 136 162 189 215 205 199 256 311 326 157 206 183 139 127 110 91 90 68 82 92 65 34 14 4 354 322 276 285 270 269 264 261 261 261 260 266 257 101 262 258 191 171 217 210 178 301 288 251 216 200 204 183 180 185 175 177 180 188 196 224 231 228 214 176 178 174 197 210 223 236 213 229 229 226
75 80 90 94 95 94 101 107 106 103 96 89 86 108 143 199 171 221 259 279 351 333 173 125 101 77 76 77 75 70 70 55 31 16 21 15 357 312 290 277 274 276 275 279 280 274 270 269 107 52 8 332 296 298 274 190 197 236 240 232 234 231 184 176 188 186 184 188 181 188 196 190 201 194 178 168 169 170 185 188 189 218 217 209 218
41 56 65 65 69 71 69 68 65 56 65 72 61 46 40 51 52 66 23 54 148 238 95 105 97 85 72 65 64 58 52 59 43 28 37 35 22 4 352 335 309 292 288 286 279 281 274 264 286 84 44 23 25 8 335 299 263 230 221 219 213 194 150 179 181 190 178 175 177 183 187 188 183 177 142 126 114 95 75 55 51 33 40 156 150
51 53 56 54 53 55 58 55 64 70 68 67 65 45 37 47 54 59 69 72 76 76 77 78 77 68 58 49 48 51 49 45 38 35 37 38 38 30 44 37 346 306 297 289 298 301 303 296 286 67 68 70 36 23 348 345 331 278 298 340 356 154 174 168 147 141 79 117 158 166 177 200 158 150 128 101 84 79 75 69 60 59 50 42 33
44 59 51 47 52 50 39 37 40 42 49 59 72 66 50 42 48 55 63 69 74 76 73 74 77 71 64 55 49 42 25 25 18 24 39 37 34 40 36 32 337 16 6 12 18 359 359 11 49 50 22 13 8 8 2 347 337 27 17 24 10 17 29 62 79 123 163 158 150 149 146 197 202 145 126 104 90 87 85 78 78 78 74 67 63
63 62 62 56 54 53 54 44 32 38 46 58 60 66 64 63 58 59 61 69 73 72 67 68 71 72 69 62 42 42 56 50 28 19 33 37 29 30 31 42 33 47 52 52 32 30 34 21 76 128 104 53 9 13 37 37 32 4 6 5 355 46 103 134 141 200 193 180 176 178 177 163 149 136 127 123 112 109 104 99 94 93 91 90 82
51 61 61 69 66 62 57 53 20 23 35 47 54 51 59 64 66 56 58 62 71 71 58 55 60 65 60 48 34 23 8 7 358 9 14 34 30 16 12 20 39 24 50 51 36 30 53 73 169 63 59 104 141 147 68 54 38 356 323 311 311 191 191 174 183 203 194 183 192 171 97 79 53 120 129 124 120 114 107 96 89 88 91 86 80
61 62 62 60 69 76 76 65 51 37 39 34 50 43 51 49 60 62 61 53 49 60 63 59 58 58 58 44 32 19 1 355 353 360 350 0 17 9 8 9 17 21 37 60 38 61 147 185 226 177 172 153 245 256 224 94 117 34 324 301 273 358 247 161 164 156 131 103 103 118 150 124 113 99 98 116 128 123 116 119 120 121 118 112 99
92 83 78 75 71 63 65 60 54 43 35 41 43 43 38 37 43 50 53 70 79 86 89 76 64 59 63 54 40 11 337 339 1 355 5 356 2 357 1 2 359 358 22 28 1 202 172 189 345 316 311 59 26 69 72 112 121 141 208 309 337 339 29 113 143 153 171 183 157 97 77 79 86 121 128 133 121 112 123 127 130 124 127 116 113
84 86 86 87 84 78 78 70 64 55 40 33 28 30 34 41 46 42 25 18 44 73 78 79 75 80 102 141 161 285 3 14 26 2 355 355 350 353 357 358 357 350 352 12 349 321 309 136 168 175 168 168 139 136 65 49 61 158 164 160 147 224 225 170 161 13 104 94 106 112 109 116 136 132 125 117 101 91 90 111 118 126 124 131 123
76 73 69 73 72 70 73 71 68 69 62 54 50 36 20 25 56 61 31 358 341 27 75 87 74 50 37 28 359 357 20 22 21 355 331 344 338 338 352 358 344 335 3 335 306 272 111 131 120 120 85 68 70 64 60 53 52 49 104 135 202 269 219 85 156 147 121 125 120 117 127 135 113 111 110 97 84 80 61 81 75 98 93 67 85
77 72 66 66 71 72 75 79 76 81 85 87 83 65 48 41 16 43 72 33 40 29 30 60 23 21 74 64 15 11 23 25 342 325 323 320 311 290 279 284 280 281 301 304 285 358 44 47 48 58 71 74 75 76 63 59 61 67 80 66 65 50 28 49 80 105 109 88 94 97 97 99 90 79 87 90 91 73 49 55 72 70 94 100 105
68 73 73 75 67 78 88 92 81 69 82 99 100 101 94 56 44 41 51 52 38 47 55 51 40 27 15 73 105 117 73 55 329 322 333 342 344 347 334 296 266 266 272 291 223 41 43 49 54 61 55 58 58 65 66 67 71 76 76 79 78 89 98 93 93 102 87 87 81 81 74 69 72 67 69 64 63 64 59 53 60 61 79 97 108
65 64 70 81 75 73 83 92 100 94 82 69 88 111 109 103 76 47 58 64 61 54 52 45 36 37 30 22 6 102 122 37 358 343 342 355 6 15 25 49 39 355 305 265 62 55 50 51 51 49 47 55 52 52 56 63 57 57 67 60 53 44 47 51 42 63 64 63 59 55 59 64 70 66 69 71 72 70 66 67 68 79 88 80 84
68 75 85 95 98 103 104 107 105 110 113 113 112 110 115 121 117 114 97 105 96 84 70 66 64 56 52 45 37 26 341 325 329 351 7 7 3 5 36 55 43 12 324 62 67 66 63 60 59 51 49 52 49 52 55 56 58 58 56 60 57 51 50 37 38 62 59 62 68 61 61 63 67 72 64 60 69 85 74 77 67 57 34 136 132
55 56 68 80 91 95 98 111 116 108 99 102 104 102 88 92 115 130 131 134 141 114 90 70 64 78 68 59 54 56 54 47 40 30 12 5 351 350 2 64 65 47 48 62 61 65 66 65 60 57 56 53 52 52 50 47 48 54 56 51 49 46 42 37 52 56 63 61 69 74 73 71 62 76 89 83 77 81 90 79 60 342 257 316 298
62 72 67 54 54 72 87 106 116 116 131 127 119 113 113 119 115 115 97 97 97 88 84 80 61 47 54 52 47 57 63 64 56 46 30 5 354 327 301 61 59 58 55 56 57 61 65 65 63 58 58 56 51 53 56 49 48 50 50 48 46 45 39 43 47 43 54 60 61 57 50 58 60 57 62 70 65 61 46 12 10 343 315 286 292
50 42 47 57 62 66 75 97 113 134 140 144 149 129 146 160 155 127 115 102 101 107 99 64 63 76 89 70 61 55 58 57 57 50 40 32 6 323 55 64 68 63 65 59 60 59 59 57 60 60 58 60 61 63 66 68 68 71 70 73 67 63 63 58 52 50 53 59 60 56 56 56 43 40 53 59 54 21 357 347 332 352 325 310 324
18 26 29 39 29 45 96 113 125 119 127 142 151 164 171 184 181 173 169 152 137 128 119 130 133 105 115 82 84 69 59 65 64 56 43 28 13 41 61 59 63 64 60 58 57 59 58 55 51 56 53 56 54 54 55 60 63 67 66 66 69 73 68 64 66 77 80 81 77 73 71 71 59 37 12 25 26 2 338 342 312 344 328 24 306
18 7 6 8 0 34 2 157 142 163 175 166 167 209 212 196 198 199 190 178 171 160 159 166 162 136 124 101 31 71 75 148 160 76 51 38 41 53 59 64 63 64 65 64 61 66 67 62 57 54 53 53 50 45 48 48 47 54 61 65 68 70 73 83 71 67 66 69 68 64 56 53 38 24 11 4 350 343 339 327 315 303 208 204 251
30 101 54 334 324 332 342 316 238 236 263 272 261 231 217 203 202 201 199 198 188 186 180 175 172 156 141 139 143 155 203 110 73 72 69 67 61 61 66 70 71 72 67 66 66 67 71 69 65 62 58 56 54 51 50 51 45 46 39 50 63 66 59 57 60 49 49 51 50 41 33 27 22 17 355 340 342 342 333 333 318 313 307 304 298
358 358 76 219 302 323 308 304 296 284 286 287 273 243 230 213 203 205 206 204 200 197 194 185 179 162 150 179 172 160 94 97 99 92 92 89 82 76 76 79 77 76 77 71 66 66 69 67 65 67 63 55 49 48 43 45 48 49 49 50 63 67 60 53 49 47 44 38 36 30 22 10 3 352 341 341 345 339 330 323 335 326 320 322 326
350 349 346 359 6 320 291 286 281 281 286 284 293 284 263 233 216 216 215 213 208 201 201 192 169 149 160 115 0 318 131 118 116 110 98 97 94 92 88 88 91 92 90 87 80 76 71 72 65 58 52 44 41 38 37 34 37 43 60 73 77 78 75 70 64 62 55 44 33 24 13 2 356 343 342 350 347 309 313 315 299 302 293 288 299
347 345 344 343 341 324 307 290 289 283 271 270 267 272 276 261 249 236 231 223 214 205 194 179 155 151 88 21 210 233 170 126 126 120 115 107 105 96 92 88 84 80 84 87 86 84 79 72 64 54 49 43 38 38 38 47 44 50 51 59 63 64 57 59 49 39 28 32 33 20 9 357 347 324 325 328 309 318 309 306 307 307 306 306 299
338 333 335 326 319 312 309 305 300 288 276 267 263 263 264 270 264 253 243 236 235 216 193 175 161 154 150 175 196 211 160 140 133 133 126 121 109 108 107 99 99 93 89 87 82 79 73 68 58 49 45 44 38 37 45 51 44 34 36 41 44 46 42 37 35 23 22 15 16 15 358 343 322 320 316 305 305 298 295 296 282 281 274 281 279
318 316 307 308 311 310 306 302 298 308 304 308 306 292 281 271 266 261 264 256 241 220 201 182 169 166 155 161 190 191 156 150 150 141 131 129 127 122 117 114 112 111 108 101 90 81 77 72 65 63 59 56 58 53 51 52 40 34 31 29 34 25 6 14 17 8 359 344 340 331 327 334 332 310 303 304 300 296 286 285 292 290 287 284 287
317 310 310 301 305 302 302 304 303 295 298 293 279 280 276 271 267 265 260 257 237 219 207 187 177 170 164 167 177 171 158 150 144 140 141 136 134 129 123 121 123 120 113 103 95 89 82 74 69 69 76 78 75 75 71 63 52 35 29 14 347 356 2 357 351 348 342 334 320 319 318 316 316 312 300 293 288 284 282 282 285 288 277 274 275
325 320 314 312 308 308 307 302 309 303 300 292 286 275 270 267 265 265 262 256 242 224 204 191 184 180 177 173 168 162 159 154 152 142 138 138 135 133 133 134 129 131 124 115 113 98 74 69 72 79 85 99 100 91 83 75 49 41 12 3 1 358 349 343 333 323 321 321 323 312 310 309 304 304 318 306 299 296 294 292 286 277 282 281 281
312 310 312 310 314 308 304 303 299 303 295 290 286 286 282 279 280 276 261 247 228 208 205 195 188 186 180 171 164 156 147 147 141 142 141 140 138 141 144 146 149 145 134 132 128 127 119 108 90 100 119 124 123 115 45 30 39 39 38 20 12 354 351 353 351 340 335 331 323 313 315 310 306 299 285 266 268 274 280 281 285 284 284 283 283
302 302 302 303 299 294 295 297 298 297 294 290 289 289 285 284 278 268 264 237 215 212 210 199 191 181 164 135 123 132 141 144 146 145 145 148 147 145 146 154 162 158 150 146 151 134 129 114 115 118 134 142 143 109 95 94 91 65 10 358 20 35 31 357 341 352 356 346 347 339 334 323 320 312 311 301 295 296 286 280 275 272 272 276 278
293 296 296 296 295 295 293 291 290 289 291 290 282 275 279 280 279 275 264 252 246 231 209 186 175 154 123 123 139 142 132 122 120 124 130 134 141 146 152 156 157 162 169 162 152 144 142 137 136 136 148 158 133 115 117 108 103 13 4 31 81 77 56 10 345 43 324 321 358 351 345 337 327 319 311 296 288 280 277 285 287 287 279 272 276
322 317 307 305 298 297 291 288 287 283 279 278 282 281 283 280 280 277 271 260 236 212 114 82 74 79 104 126 124 119 127 150 154 152 151 153 153 153 154 157 164 172 170 153 151 147 153 132 152 151 154 152 135 125 108 106 17 352 350 67 88 85 64 58 61 8 324 4 350 358 353 350 340 326 311 303 292 286 280 280 282 280 277 282 281
334 330 335 337 338 331 323 319 311 304 299 287 284 291 297 296 292 267 232 216 204 161 141 149 141 140 133 128 134 147 155 146 122 126 137 142 147 150 156 161 168 165 164 161 166 164 165 175 202 190 173 144 142 137 141 110 304 27 80 102 117 71 45 334 12 84 356 315 333 355 357 359 347 342 328 319 310 302 307 301 293 284 281 280 285